This demonstration page uses our WeatherBlox Daily Observations layout. Learn more.

Left ArrowRight Arrow

Hourly Observations for September 19, 2022

Temp ( °F °C ) Dew Point ( °F °C ) Humidity (%) Winds ( mph kmh ) Pressure ( in mb ) Visibility ( mi km ) Precip ( " mm )
12:53 am 00:53 Clear 79 26.1 64 17.8 60 60 NNE 13 20 29.95 1014 10 16 0.00 0.00
1:53 am 01:53 Partly Cloudy 79 26.1 69 20.6 72 72 NNE 12 19 29.94 1014 10 16 0.00 0.00
2:53 am 02:53 Clear 77 25 67 19.4 71 71 NNE 7 11 29.92 1013 10 16 0.00 0.00
3:53 am 03:53 Mostly Cloudy 79 26.1 63 17.2 58 58 NE 8 13 29.91 1013 10 16 0.00 0.00
4:53 am 04:53 Clear 77 25 63 17.2 62 62 S 5 7 29.91 1013 10 16 0.00 0.00
5:53 am 05:53 Clear 76 24.4 67 19.4 74 74 SE 6 9 29.91 1013 10 16 0.00 0.00
6:53 am 06:53 Sunny 77 25 67 19.4 71 71 ESE 3 6 29.93 1014 10 16 0.00 0.00
7:53 am 07:53 Sunny 81 27.2 68 20 65 65 SSE 5 7 29.95 1014 10 16 0.00 0.00
8:09 am 08:09 Mostly Cloudy 81 27.2 69 20.6 67 67 VRB 3 6 29.95 1014 10 16 0.00 0.00
8:43 am 08:43 Mostly Cloudy 81 27.2 67 19.4 62 62 WNW 3 6 29.97 1015 10 16 0.00 0.00
8:53 am 08:53 Mostly Cloudy 81 27.2 68 20 65 65 Calm 29.96 1015 10 16 0.00 0.00
9:51 am 09:51 Cloudy 81 27 70 21 70 70 Calm 29.97 1015 10 16 0.00 0.00
9:53 am 09:53 Cloudy 81 27.2 69 20.6 67 67 NW 3 6 29.97 1015 10 16 0.00 0.00
10:25 am 10:25 Partly Cloudy 85 29.4 70 21.1 61 61 SW 9 15 29.97 1015 10 16 0.00 0.00
10:53 am 10:53 Sunny 84 28.9 70 21.1 63 63 SSW 8 13 29.96 1015 10 16 0.00 0.00
11:53 am 11:53 Sunny 86 30 70 21.1 59 59 SW 10 17 29.95 1014 10 16 0.00 0.00
12:53 pm 12:53 Mostly Sunny 87 30.6 69 20.6 55 55 SW 12 19 29.93 1014 10 16 0.00 0.00
1:53 pm 13:53 Mostly Cloudy 87 30.6 68 20 53 53 WSW 12 19 29.92 1013 10 16 0.00 0.00
2:53 pm 14:53 Mostly Cloudy 85 29.4 69 20.6 59 59 SSW 13 20 29.90 1013 10 16 0.00 0.00
3:53 pm 15:53 Cloudy 83 28.3 68 20 61 61 S 8 13 29.91 1013 10 16 0.00 0.00
4:31 pm 16:31 Cloudy with Light Rain 78 25.6 71 21.7 79 79 E 12 19 29.93 1013 4 6 0.01 0.13
4:53 pm 16:53 Cloudy 80 26.7 68 20 67 67 ESE 14 22 29.92 1013 10 16 0.01 0.13
5:53 pm 17:53 Mostly Cloudy 83 28.3 67 19.4 59 59 ESE 10 17 29.92 1013 10 16 0.00 0.00
6:53 pm 18:53 Cloudy 82 27.8 67 19.4 60 60 ESE 8 13 29.94 1014 10 16 0.00 0.00
7:53 pm 19:53 Cloudy 82 27.8 69 20.6 65 65 SE 5 7 29.96 1015 10 16 0.00 0.00
8:53 pm 20:53 Cloudy 81 27.2 72 22.2 74 74 S 5 7 29.98 1015 10 16 0.00 0.00
9:53 pm 21:53 Cloudy 81 27.2 67 19.4 62 62 Calm 29.98 1015 10 16 0.00 0.00
10:53 pm 22:53 Mostly Cloudy 80 26.7 70 21.1 71 71 VRB 3 6 29.98 1015 10 16 0.00 0.00
11:53 pm 23:53 Clear 78 25.6 65 18.3 64 64 E 6 9 29.97 1015 10 16 0.00 0.00

Powered by AerisWeather